This demonstration page uses our WeatherBlox Daily Observations layout. Learn more.

40.92945, -100.16068

Hourly Observations for December 22, 2017

Temp ( °F °C ) Dew Point ( °F °C ) Humidity (%) Winds ( mph kmh ) Pressure ( in mb ) Visibility ( mi km ) Precip ( " mm )
12:15 am 00:15 Cloudy 19 -7.3 13 -10.3 79 79 NNW 13 20 30.3 1026 10 16.09344 0 0
12:35 am 00:35 Cloudy 19 -7.3 13 -10.3 79 79 NNW 17 28 30.3 1026 10 16.09344 0 0
12:55 am 00:55 Cloudy 19 -7.3 13 -10.3 79 79 N 13 20 30.24 1024 10 16.09344 0 0
1:15 am 01:15 Cloudy 19 -7.5 13 -10.4 80 80 N 12 19 30.27 1025 10 16.09344 0 0
1:35 am 01:35 Cloudy 18 -7.7 13 -10.7 79 79 NNW 10 17 30.27 1025 10 16.09344 0 0
1:55 am 01:55 Cloudy 18 -7.6 13 -10.5 80 80 NNW 9 15 30.27 1025 10 16.09344 0 0
2:15 am 02:15 Cloudy 18 -8 13 -10.8 81 81 NNW 5 7 30.27 1025 10 16.09344 0 0
2:35 am 02:35 Cloudy 18 -7.9 13 -10.4 82 82 WNW 8 13 30.27 1025 10 16.09344 0 0
2:55 am 02:55 Cloudy 18 -7.7 13 -10.3 82 82 NW 8 13 30.27 1025 10 16.09344 0 0
3:15 am 03:15 Cloudy 18 -8 13 -10.7 81 81 NW 9 15 30.3 1026 10 16.09344 0 0
3:35 am 03:35 Partly Cloudy 16 -9 11 -11.5 82 82 NW 7 11 30.3 1026 10 16.09344 0 0
3:55 am 03:55 Mostly Cloudy 16 -9 11 -11.5 82 82 NW 9 15 30.3 1026 10 16.09344 0 0
4:15 am 04:15 Partly Cloudy 14 -10 10 -12.2 84 84 NW 7 11 30.33 1027 10 16.09344 0 0
4:35 am 04:35 Clear 13 -10.5 9 -12.7 84 84 WNW 5 7 30.33 1027 10 16.09344 0 0
4:55 am 04:55 Clear 13 -10.7 9 -13 83 83 WNW 6 9 30.33 1027 10 16.09344 0 0
5:15 am 05:15 Clear 12 -11 8 -13.1 85 85 WNW 8 13 30.33 1027 10 16.09344 0 0
5:35 am 05:35 Clear 12 -11 8 -13.4 83 83 WNW 9 15 30.33 1027 10 16.09344 0 0
5:55 am 05:55 Clear 12 -11.1 8 -13.5 83 83 WNW 7 11 30.33 1027 10 16.09344 0 0
6:15 am 06:15 Clear 11 -11.5 8 -13.6 85 85 WNW 5 7 30.33 1027 10 16.09344 0 0
6:35 am 06:35 Clear 11 -11.9 6 -14.2 83 83 W 3 6 30.33 1027 10 16.09344 0 0
6:55 am 06:55 Clear 10 -12 6 -14.2 84 84 W 3 6 30.33 1027 10 16.09344 0 0
7:15 am 07:15 Clear 10 -12.4 6 -14.7 83 83 Calm 30.33 1027 10 16.09344 0 0
7:35 am 07:35 Clear 10 -12.3 6 -14.5 84 84 Calm 30.33 1027 10 16.09344 0 0
7:55 am 07:55 Clear 9 -12.6 5 -14.8 84 84 NW 6 9 30.33 1027 10 16.09344 0 0
8:15 am 08:15 Sunny 9 -12.9 5 -15.1 84 84 NW 3 6 30.36 1028 10 16.09344 0 0
8:35 am 08:35 Sunny 10 -12.2 6 -14.5 83 83 NW 7 11 30.33 1027 10 16.09344 0 0
8:55 am 08:55 Sunny 11 -11.5 7 -14 82 82 NW 7 11 30.33 1027 10 16.09344 0 0
9:15 am 09:15 Sunny 13 -10.8 8 -13.2 83 83 NW 5 7 30.33 1027 10 16.09344 0 0
9:35 am 09:35 Sunny 14 -9.8 10 -12.2 83 83 W 3 6 30.3 1026 10 16.09344 0 0
9:55 am 09:55 Sunny 16 -8.8 11 -11.5 81 81 Calm 30.3 1026 10 16.09344 0 0
10:15 am 10:15 Sunny 18 -7.7 13 -10.5 81 81 Calm 30.3 1026 10 16.09344 0 0
10:35 am 10:35 Sunny 20 -6.6 15 -9.7 79 79 Calm 30.27 1025 10 16.09344 0 0
10:55 am 10:55 Sunny 22 -5.7 16 -9.1 77 77 Calm 30.27 1025 10 16.09344 0 0
11:15 am 11:15 Sunny 23 -5.1 16 -9 74 74 WSW 3 6 30.27 1025 10 16.09344 0 0
11:35 am 11:35 Sunny 24 -4.4 17 -8.5 73 73 WNW 3 6 30.27 1025 10 16.09344 0 0
11:55 am 11:55 Sunny 25 -3.7 18 -7.8 74 74 W 6 9 30.24 1024 10 16.09344 0 0
12:40 pm 12:40 undefined N/A N/A N/A W 8 13 N/A N/A 0 0
12:55 pm 12:55 Sunny 28 -2.1 18 -7.6 66 66 NW 12 19 30.21 1023 10 16.09344 0 0
1:15 pm 13:15 Sunny 28 -2.3 18 -7.7 67 67 NW 12 19 30.21 1023 10 16.09344 0 0
1:35 pm 13:35 Sunny 29 -1.9 19 -7.4 66 66 NW 7 11 30.21 1023 10 16.09344 0 0
1:55 pm 13:55 Sunny 29 -1.4 19 -7.5 64 64 WNW 9 15 30.15 1021 10 16.09344 0 0
2:15 pm 14:15 Sunny 30 -1 19 -7.3 63 63 WNW 6 9 30.15 1021 10 16.09344 0 0
2:35 pm 14:35 Sunny 32 -0.1 19 -7 60 60 WNW 8 13 30.15 1021 10 16.09344 0 0
2:55 pm 14:55 Sunny 34 1 18 -8 51 51 N 13 20 30.12 1020 10 16.09344 0 0
3:15 pm 15:15 Sunny 34 1 18 -7.8 52 52 N 12 19 30.12 1020 10 16.09344 0 0
3:35 pm 15:35 Sunny 34 1.1 18 -7.8 52 52 N 14 22 30.12 1020 10 16.09344 0 0
3:55 pm 15:55 Sunny 34 1.2 18 -7.7 52 52 N 15 24 30.18 1022 10 16.09344 0 0
4:15 pm 16:15 Sunny 34 1 18 -7.7 53 53 N 14 22 30.18 1022 10 16.09344 0 0
4:35 pm 16:35 Sunny 33 0.5 18 -7.6 55 55 N 12 19 30.18 1022 10 16.09344 0 0
4:55 pm 16:55 Sunny 32 -0.2 18 -7.6 58 58 N 8 13 30.18 1022 10 16.09344 0 0
5:15 pm 17:15 Sunny 29 -1.5 18 -7.9 62 62 N 8 13 30.18 1022 10 16.09344 0 0
5:35 pm 17:35 Clear 27 -2.6 18 -7.9 67 67 N 9 15 30.21 1023 10 16.09344 0 0
5:55 pm 17:55 Clear 26 -3.5 17 -8.2 70 70 N 8 13 30.24 1024 10 16.09344 0 0
6:15 pm 18:15 Clear 26 -3.1 18 -8 69 69 N 9 15 30.24 1024 10 16.09344 0 0
6:35 pm 18:35 Clear 23 -4.8 17 -8.6 75 75 N 7 11 30.27 1025 10 16.09344 0 0
6:55 pm 18:55 Clear 23 -5.1 17 -8.6 77 77 N 8 13 30.27 1025 10 16.09344 0 0
7:15 pm 19:15 Clear 22 -5.6 16 -8.8 78 78 N 8 13 30.3 1026 10 16.09344 0 0
7:35 pm 19:35 Clear 21 -6.1 16 -9.1 80 80 N 8 13 30.3 1026 10 16.09344 0 0
7:55 pm 19:55 Clear 21 -6.3 16 -9 81 81 N 9 15 30.3 1026 10 16.09344 0 0
8:15 pm 20:15 Clear 20 -6.6 15 -9.3 81 81 N 7 11 30.3 1026 10 16.09344 0 0
8:35 pm 20:35 Mostly Cloudy 22 -5.8 17 -8.4 82 82 N 6 9 30.33 1027 10 16.09344 0 0
8:55 pm 20:55 Cloudy 23 -4.9 19 -7.3 83 83 N 12 19 30.33 1027 10 16.09344 0 0
9:15 pm 21:15 Cloudy 25 -4.1 19 -7 80 80 NNE 9 15 30.33 1027 10 16.09344 0 0
9:35 pm 21:35 Cloudy 25 -4.1 19 -7 80 80 N 13 20 30.33 1027 10 16.09344 0 0
9:55 pm 21:55 Cloudy 25 -4.1 19 -7 80 80 N 13 20 30.33 1027 10 16.09344 0 0
10:15 pm 22:15 Cloudy 25 -4.1 19 -7 80 80 NNE 10 17 30.33 1027 10 16.09344 0 0
10:35 pm 22:35 Cloudy 24 -4.2 19 -7.2 80 80 N 12 19 30.36 1028 10 16.09344 0 0
10:55 pm 22:55 Cloudy 24 -4.3 19 -7.2 80 80 NNE 8 13 30.36 1028 10 16.09344 0 0
11:15 pm 23:15 Cloudy 24 -4.3 19 -7.2 80 80 N 9 15 30.36 1028 10 16.09344 0 0
11:35 pm 23:35 Cloudy 24 -4.2 19 -7.2 80 80 NNE 7 11 30.36 1028 10 16.09344 0 0
11:55 pm 23:55 Cloudy 24 -4.2 19 -7.2 80 80 NNE 7 11 30.36 1028 10 16.09344 0 0

Powered by AerisWeather